Overview Statistics Trail Chart Weather Telemetry Raw packets
 

This is the latest recevied weather packets stored in our database for station/object N5ATR. If no packets are shown the sender has not sent any weather packets the latest 10 day(s).

<< 103 104 105 106 107 108 109 >>
Time Temp. Humidity Pressure Rain* Wind** Luminosity Snow
1787913500 13.89° C 72% 1027 hPa 0 mm - 0 W/m² -
1787913199 13.33° C 75% 1027.1 hPa 0 mm - 0 W/m² -
1787912899 13.33° C 76% 1027 hPa 0 mm - 0 W/m² -
1787912598 13.33° C 76% 1026.8 hPa 0 mm - 0 W/m² -
1787912298 13.89° C 74% 1027.1 hPa 0 mm - 0 W/m² -
1787911997 13.89° C 70% 1027.2 hPa 0 mm - 0 W/m² -
1787911692 13.89° C 72% 1027.2 hPa 0 mm - 0 W/m² -
1787911392 13.33° C 72% 1027.1 hPa 0 mm - 0 W/m² -
1787911088 13.89° C 74% 1027.1 hPa 0 mm - 0 W/m² -
1787910783 14.44° C 71% 1027.2 hPa 0 mm - 0 W/m² -
1787910478 14.44° C 71% 1027.1 hPa 0 mm - 0 W/m² -
1787910174 14.44° C 71% 1027.2 hPa 0 mm - 0 W/m² -
1787909872 15° C 70% 1026.8 hPa 0 mm - 0 W/m² -
1787909571 15° C 70% 1027.1 hPa 0 mm - 0 W/m² -
1787909266 15.56° C 68% 1027 hPa 0 mm - 0 W/m² -
1787908961 15° C 69% 1027 hPa 0 mm - 0 W/m² -
1787908660 13.89° C 72% 1026.8 hPa 0 mm - 0 W/m² -
1787908366 13.89° C 74% 1026.8 hPa 0 mm - 0 W/m² -
1787908059 14.44° C 72% 1026.8 hPa 0 mm - 0 W/m² -
1787907755 15.56° C 68% 1026.7 hPa 0 mm - 0 W/m² -
1787907450 15° C 70% 1026.5 hPa 0 mm - 0 W/m² -
1787907145 15.56° C 70% 1026.8 hPa 0 mm - 0 W/m² -
1787906841 15.56° C 68% 1026.7 hPa 0 mm - 0 W/m² -
1787906541 15.56° C 69% 1027 hPa 0 mm - 0 W/m² -
1787906232 15.56° C 68% 1027 hPa 0 mm - 0 W/m² -

* Rain latest hour (hover to see other rain measurements)
** Current wind speed in m/s (hover to see current wind gust speed)